• In Hungary
  • List of Countries
  • For 7 days
  • Water Temperature
  • Satellite Maps
  • Weather Map
  • News
  • Weather Widgets
  • user-avatar
    Login

    Hourly Weather Trudovoy

    Today, 15 November, Thursday

    Time Temperature Precipitation Wind Pressure Humidity
    00:00 -5°C° 0 mm 2 mps 777 mmHg 30%
    01:00 -5°C° 0 mm 2 mps 777 mmHg 30%
    02:00 -6°C° 0 mm 2 mps 777 mmHg 30%
    03:00 -6°C° 0 mm 2 mps 778 mmHg 30%
    04:00 -6°C° 0 mm 2 mps 778 mmHg 30%
    05:00 -7°C° 0 mm 2 mps 778 mmHg 31%
    06:00 -7°C° 0 mm 2 mps 778 mmHg 31%
    07:00 -7°C° 0 mm 3 mps 778 mmHg 30%
    08:00 -7°C° 0 mm 3 mps 778 mmHg 28%
    09:00 -6°C° 0 mm 3 mps 778 mmHg 27%
    10:00 -5°C° 0 mm 3 mps 778 mmHg 25%
    11:00 -4°C° 0 mm 3 mps 778 mmHg 23%
    12:00 -2°C° 0 mm 3 mps 778 mmHg 21%
    13:00 -2°C° 0 mm 3 mps 778 mmHg 22%
    14:00 -1°C° 0 mm 3 mps 778 mmHg 22%
    15:00 -1°C° 0 mm 3 mps 778 mmHg 22%
    16:00 -2°C° 0 mm 3 mps 778 mmHg 24%
    17:00 -4°C° 0 mm 3 mps 779 mmHg 26%
    18:00 -4°C° 0 mm 3 mps 779 mmHg 28%
    19:00 -5°C° 0 mm 3 mps 779 mmHg 28%
    20:00 -5°C° 0 mm 3 mps 779 mmHg 28%
    21:00 -5°C° 0 mm 3 mps 780 mmHg 28%
    22:00 -5°C° 0 mm 3 mps 780 mmHg 28%
    23:00 -5°C° 0 mm 3 mps 780 mmHg 28%

    Tomorrow, 16 November, Friday

    Time Temperature Precipitation Wind Pressure Humidity
    00:00 -6°C° 0 mm 3 mps 780 mmHg 28%
    01:00 -6°C° 0 mm 3 mps 780 mmHg 29%
    02:00 -6°C° 0 mm 3 mps 780 mmHg 29%
    03:00 -6°C° 0 mm 3 mps 780 mmHg 30%
    04:00 -6°C° 0 mm 3 mps 780 mmHg 31%
    05:00 -6°C° 0 mm 3 mps 780 mmHg 31%
    06:00 -6°C° 0 mm 3 mps 780 mmHg 32%
    07:00 -6°C° 0 mm 3 mps 781 mmHg 31%
    08:00 -7°C° 0 mm 4 mps 781 mmHg 30%
    09:00 -5°C° 0 mm 4 mps 781 mmHg 29%
    10:00 -4°C° 0 mm 4 mps 781 mmHg 27%
    11:00 -3°C° 0 mm 4 mps 781 mmHg 25%
    12:00 -2°C° 0 mm 4 mps 781 mmHg 23%
    13:00 -2°C° 0 mm 4 mps 781 mmHg 23%
    14:00 -2°C° 0 mm 4 mps 780 mmHg 24%
    15:00 -1°C° 0 mm 3 mps 780 mmHg 24%
    16:00 -2°C° 0 mm 3 mps 780 mmHg 27%
    17:00 -2°C° 0 mm 3 mps 780 mmHg 29%
    18:00 -4°C° 0 mm 3 mps 780 mmHg 31%
    19:00 -4°C° 0 mm 3 mps 780 mmHg 32%
    20:00 -5°C° 0 mm 3 mps 780 mmHg 32%
    21:00 -5°C° 0 mm 3 mps 780 mmHg 33%
    22:00 -5°C° 0 mm 3 mps 780 mmHg 34%
    23:00 -5°C° 0 mm 3 mps 780 mmHg 34%

    Day after tomorrow, 17 November, Saturday

    Time Temperature Precipitation Wind Pressure Humidity
    00:00 -5°C° 0 mm 3 mps 780 mmHg 35%
    01:00 -4°C° 0 mm 2 mps 780 mmHg 35%
    02:00 -5°C° 0 mm 2 mps 779 mmHg 35%
    03:00 -5°C° 0 mm 2 mps 779 mmHg 35%
    04:00 -5°C° 0 mm 2 mps 779 mmHg 35%
    05:00 -5°C° 0 mm 2 mps 779 mmHg 35%
    06:00 -5°C° 0 mm 2 mps 778 mmHg 35%
    07:00 -4°C° 0 mm 2 mps 778 mmHg 33%
    08:00 -4°C° 0 mm 2 mps 778 mmHg 31%
    09:00 -3°C° 0 mm 2 mps 778 mmHg 29%
    10:00 0°C° 0 mm 1 mps 777 mmHg 26%
    11:00 +1°C° 0 mm 1 mps 777 mmHg 23%
    12:00 +2°C° 0 mm 1 mps 777 mmHg 20%
    13:00 +2°C° 0 mm 1 mps 776 mmHg 21%
    14:00 +2°C° 0 mm 1 mps 775 mmHg 22%
    15:00 +2°C° 0 mm 1 mps 775 mmHg 23%
    16:00 +1°C° 0 mm 1 mps 775 mmHg 24%
    17:00 0°C° 0 mm 1 mps 774 mmHg 24%
    18:00 0°C° 0 mm 1 mps 774 mmHg 25%
    19:00 -1°C° 0 mm 1 mps 773 mmHg 25%
    20:00 -2°C° 0 mm 0 mps 773 mmHg 24%
    21:00 -2°C° 0 mm 0 mps 773 mmHg 24%
    22:00 -2°C° 0 mm 0 mps 772 mmHg 25%
    23:00 -1°C° 0 mm 1 mps 772 mmHg 25%

    18 November, Sunday

    Time Temperature Precipitation Wind Pressure Humidity
    00:00 -1°C° 0 mm 1 mps 771 mmHg 26%
    01:00 -1°C° 0 mm 1 mps 771 mmHg 27%
    02:00 -2°C° 0 mm 1 mps 770 mmHg 28%
    03:00 -2°C° 0 mm 1 mps 770 mmHg 29%
    04:00 -2°C° 0 mm 1 mps 769 mmHg 29%
    05:00 -2°C° 0 mm 1 mps 769 mmHg 30%
    06:00 -3°C° 0 mm 0 mps 769 mmHg 30%
    07:00 -2°C° 0 mm 1 mps 768 mmHg 30%
    08:00 -1°C° 0 mm 1 mps 768 mmHg 30%
    09:00 -1°C° 0 mm 1 mps 768 mmHg 29%
    10:00 0°C° 0 mm 1 mps 768 mmHg 28%
    11:00 +1°C° 0 mm 1 mps 768 mmHg 26%
    12:00 +2°C° 0 mm 1 mps 768 mmHg 24%
    13:00 +2°C° 0 mm 1 mps 768 mmHg 26%
    14:00 +2°C° 0 mm 1 mps 768 mmHg 28%
    15:00 +2°C° 0 mm 1 mps 768 mmHg 29%
    16:00 +1°C° 0 mm 1 mps 768 mmHg 31%
    17:00 +1°C° 0 mm 1 mps 768 mmHg 32%
    18:00 0°C° 0 mm 1 mps 768 mmHg 34%
    19:00 0°C° 0 mm 1 mps 768 mmHg 34%
    20:00 0°C° 0 mm 1 mps 768 mmHg 35%
    21:00 0°C° 0 mm 1 mps 768 mmHg 35%
    22:00 0°C° 0 mm 1 mps 768 mmHg 35%
    23:00 0°C° 0 mm 1 mps 768 mmHg 35%

    19 November, Monday

    Time Temperature Precipitation Wind Pressure Humidity
    00:00 0°C° 0 mm 1 mps 768 mmHg 35%
    01:00 -2°C° 0 mm 2 mps 768 mmHg 35%
    02:00 -3°C° 0 mm 2 mps 769 mmHg 36%
    03:00 -3°C° 0 mm 2 mps 769 mmHg 36%
    04:00 -3°C° 0 mm 2 mps 769 mmHg 35%
    05:00 -3°C° 0 mm 2 mps 769 mmHg 35%
    06:00 -3°C° 0 mm 2 mps 769 mmHg 35%
    07:00 -4°C° 0 mm 3 mps 770 mmHg 34%
    08:00 -4°C° 0 mm 3 mps 770 mmHg 33%
    09:00 -2°C° 0 mm 3 mps 770 mmHg 32%
    10:00 -1°C° 0 mm 3 mps 770 mmHg 30%
    11:00 -1°C° 0 mm 3 mps 771 mmHg 29%
    12:00 0°C° 0 mm 3 mps 771 mmHg 27%
    13:00 0°C° 0 mm 3 mps 771 mmHg 28%
    14:00 0°C° 0 mm 3 mps 771 mmHg 29%
    15:00 0°C° 0 mm 3 mps 771 mmHg 30%
    16:00 0°C° 0 mm 3 mps 771 mmHg 32%
    17:00 -1°C° 0 mm 3 mps 772 mmHg 33%
    18:00 -2°C° 0 mm 3 mps 772 mmHg 35%
    19:00 -2°C° 0 mm 3 mps 772 mmHg 35%
    20:00 -2°C° 0 mm 3 mps 772 mmHg 35%
    21:00 -2°C° 0 mm 3 mps 772 mmHg 36%
    22:00 -4°C° 0 mm 3 mps 772 mmHg 36%
    23:00 -4°C° 0 mm 3 mps 772 mmHg 36%

    20 November, Tuesday

    Time Temperature Precipitation Wind Pressure Humidity
    00:00 -4°C° 0 mm 3 mps 772 mmHg 36%
    01:00 -4°C° 0 mm 3 mps 772 mmHg 36%
    02:00 -4°C° 0 mm 3 mps 773 mmHg 36%
    03:00 -4°C° 0 mm 3 mps 773 mmHg 36%
    04:00 -4°C° 0 mm 3 mps 773 mmHg 36%
    05:00 -5°C° 0 mm 3 mps 772 mmHg 36%
    06:00 -5°C° 0 mm 3 mps 772 mmHg 36%
    07:00 -4°C° 0 mm 3 mps 773 mmHg 35%
    08:00 -4°C° 0 mm 3 mps 773 mmHg 34%
    09:00 -4°C° 0 mm 3 mps 773 mmHg 33%
    10:00 -2°C° 0 mm 3 mps 773 mmHg 31%
    11:00 -1°C° 0 mm 3 mps 773 mmHg 30%
    12:00 0°C° 0 mm 3 mps 772 mmHg 29%
    13:00 0°C° 0 mm 3 mps 772 mmHg 29%
    14:00 0°C° 0 mm 3 mps 772 mmHg 30%
    15:00 -1°C° 0 mm 3 mps 772 mmHg 31%
    16:00 -1°C° 0 mm 3 mps 772 mmHg 32%
    17:00 -2°C° 0 mm 3 mps 772 mmHg 34%
    18:00 -2°C° 0 mm 3 mps 772 mmHg 35%
    19:00 -4°C° 0 mm 3 mps 772 mmHg 36%
    20:00 -3°C° 0 mm 2 mps 772 mmHg 36%
    21:00 -3°C° 0 mm 2 mps 772 mmHg 37%
    22:00 -3°C° 0 mm 2 mps 772 mmHg 37%
    23:00 -4°C° 0 mm 2 mps 772 mmHg 38%
    Show more